Valley City, ND

2:51 AM CDT on April 22, 2018 (GMT -0500)
Valley City

Weather History for KBAC - March, 2013

Change the Weather History Date:

Saturday, March 9, 2013

  Actual Average (KJMS) Record (KJMS)
Temperature  
Mean Temperature 22 °F -  
Max Temperature 28 °F 34 °F 57 °F (2015)
Min Temperature 17 °F 15 °F -21 °F (1951)
Degree Days  
Heating Degree Days 42    
Moisture  
Dew Point 24 °F    
Average Humidity 97    
Maximum Humidity 100    
Minimum Humidity 86    
Precipitation  
Precipitation 0.05 in - - ()
Sea Level Pressure  
Sea Level Pressure 29.89 in    
Wind  
Wind Speed 12 mph (North)    
Max Wind Speed 25 mph    
Max Gust Speed 36 mph    
Visibility 6 miles    
Events Rain , Snow    
Averages and records for this station are not official NWS values.
T = Trace of Precipitation, MM = Missing Value Source: NWS Daily Summary

Daily Weather History Graph

Daily Weather History Graph

Search for Another Location

Airport or City:

Astronomy

Mar. 09, 2013 Rise Set
Actual Time 6:56 AM CST 6:29 PM CST
Civil Twilight 6:25 AM CST 6:59 PM CST
Nautical Twilight 5:50 AM CST 7:35 PM CST
Astronomical Twilight 5:15 AM CST 8:11 PM CST
Moon 5:27 AM CST (3/9) 4:28 PM CST (3/9)
Length of Visible Light 12h 34m
Length of Day
11h 33m
Waning Crescent, 5% of the Moon is Illuminated
Mar 9
Waning Crescent
Mar 11
New
Mar 19
First Quarter
Mar 27
Full
Apr 2
Last Quarter

Hourly Weather History & Observations

Time (CST) Temp. Windchill Dew Point Humidity Pressure Visibility Wind Dir Wind Speed Gust Speed Precip Events Conditions
12:15 AM 24.8 °F 16.9 °F 24.8 °F 100% 30.00 in 5.0 mi ENE 6.9 mph - N/A   Overcast
12:35 AM 26.6 °F 17.5 °F 26.6 °F 100% 29.98 in 5.0 mi NE 9.2 mph - N/A   Overcast
12:55 AM 26.6 °F 17.5 °F 26.6 °F 100% 29.97 in 4.0 mi NE 9.2 mph - N/A Rain Light Freezing Rain
1:15 AM 24.8 °F 14.6 °F 24.8 °F 100% 29.95 in 5.0 mi ENE 10.4 mph - N/A   Mostly Cloudy
1:35 AM 24.8 °F 14.0 °F 24.8 °F 100% 29.94 in 3.0 mi ENE 11.5 mph - N/A Snow Light Snow
1:55 AM 24.8 °F 14.6 °F 24.8 °F 100% 29.94 in 3.0 mi NE 10.4 mph - N/A Rain Light Freezing Rain
2:15 AM 24.8 °F 14.6 °F 24.8 °F 100% 29.93 in 3.0 mi NE 10.4 mph - N/A Rain Light Freezing Rain
2:35 AM 24.8 °F 14.0 °F 24.8 °F 100% 29.93 in 2.5 mi NE 11.5 mph - N/A Rain Light Freezing Rain
3:15 AM 23.0 °F 13.9 °F 23.0 °F 100% 29.91 in 3.0 mi North 8.1 mph - N/A   Overcast
3:35 AM 23.0 °F 17.0 °F 23.0 °F 100% 29.91 in 3.0 mi NNE 4.6 mph - N/A   Overcast
3:55 AM 23.0 °F 15.8 °F 23.0 °F 100% 29.90 in 4.0 mi North 5.8 mph - N/A   Overcast
4:15 AM 23.0 °F 15.8 °F 23.0 °F 100% 29.89 in 4.0 mi North 5.8 mph - N/A   Overcast
4:35 AM 23.0 °F 15.8 °F 23.0 °F 100% 29.89 in 5.0 mi NNE 5.8 mph - N/A   Overcast
4:55 AM 23.0 °F 12.4 °F 23.0 °F 100% 29.88 in 5.0 mi NNE 10.4 mph - N/A   Overcast
5:15 AM 23.0 °F 12.4 °F 23.0 °F 100% 29.87 in 5.0 mi NNE 10.4 mph - N/A Rain Light Freezing Rain
5:35 AM 23.0 °F 12.4 °F 23.0 °F 100% 29.88 in 5.0 mi NE 10.4 mph - N/A   Overcast
5:55 AM 23.0 °F 12.4 °F 23.0 °F 100% 29.87 in 5.0 mi NE 10.4 mph - N/A   Mostly Cloudy
6:15 AM 23.0 °F 13.1 °F 23.0 °F 100% 29.86 in 5.0 mi NE 9.2 mph - N/A   Overcast
6:35 AM 23.0 °F 10.6 °F 23.0 °F 100% 29.86 in 6.0 mi NNE 13.8 mph - N/A   Overcast
6:55 AM 23.0 °F 12.4 °F 23.0 °F 100% 29.85 in 4.0 mi NNE 10.4 mph - N/A   Overcast
7:15 AM 23.0 °F 15.8 °F 23.0 °F 100% 29.87 in 4.0 mi NNE 5.8 mph - N/A   Overcast
7:35 AM 23.0 °F 14.7 °F 23.0 °F 100% 29.88 in 4.0 mi NNE 6.9 mph - N/A   Overcast
7:55 AM 23.0 °F 13.9 °F 23.0 °F 100% 29.86 in 4.0 mi NNE 8.1 mph - N/A   Mostly Cloudy
8:15 AM 23.0 °F 13.1 °F 23.0 °F 100% 29.86 in 3.0 mi NNE 9.2 mph - N/A Rain Light Freezing Rain
8:35 AM 23.0 °F 11.7 °F 23.0 °F 100% 29.85 in 3.0 mi North 11.5 mph - N/A Rain Light Freezing Rain
8:55 AM 23.0 °F 13.1 °F 23.0 °F 100% 29.85 in 4.0 mi North 9.2 mph - N/A Rain Light Freezing Rain
9:15 AM 23.0 °F 12.4 °F 23.0 °F 100% 29.84 in 5.0 mi North 10.4 mph - N/A   Overcast
9:35 AM 24.8 °F 15.3 °F 24.8 °F 100% 29.84 in 5.0 mi North 9.2 mph - N/A   Overcast
9:55 AM 24.8 °F 15.3 °F 24.8 °F 100% 29.83 in 5.0 mi North 9.2 mph - N/A   Overcast
10:15 AM 24.8 °F 14.0 °F 24.8 °F 100% 29.83 in 5.0 mi North 11.5 mph - N/A   Mostly Cloudy
10:35 AM 24.8 °F 12.9 °F 24.8 °F 100% 29.83 in 5.0 mi North 13.8 mph - N/A   Overcast
10:55 AM 24.8 °F 12.4 °F 24.8 °F 100% 29.84 in 5.0 mi North 15.0 mph - N/A   Overcast
11:15 AM 24.8 °F 12.4 °F 24.8 °F 100% 29.83 in 5.0 mi NNW 15.0 mph - N/A   Overcast
11:35 AM 26.6 °F 15.7 °F 24.8 °F 93% 29.82 in 7.0 mi North 12.7 mph - N/A   Overcast
11:55 AM 26.6 °F 14.7 °F 24.8 °F 93% 29.82 in 7.0 mi North 15.0 mph - N/A   Mostly Cloudy
12:15 PM 26.6 °F 13.8 °F 24.8 °F 93% 29.82 in 7.0 mi North 17.3 mph - N/A   Mostly Cloudy
12:35 PM 26.6 °F 14.7 °F 24.8 °F 93% 29.82 in 7.0 mi North 15.0 mph - N/A   Overcast
12:55 PM 26.6 °F 15.7 °F 24.8 °F 93% 29.83 in 7.0 mi North 12.7 mph - N/A   Overcast
1:15 PM 28.4 °F 17.5 °F 26.6 °F 93% 29.83 in 7.0 mi NNW 13.8 mph - N/A   Overcast
1:35 PM 28.4 °F 17.0 °F 26.6 °F 93% 29.82 in 7.0 mi NNW 15.0 mph - N/A   Overcast
1:55 PM 28.4 °F 16.6 °F 26.6 °F 93% 29.82 in 7.0 mi NNW 16.1 mph - N/A   Overcast
2:15 PM 28.4 °F 15.1 °F 26.6 °F 93% 29.82 in 6.0 mi NNW 20.7 mph - N/A   Overcast
2:35 PM 28.4 °F 14.4 °F 26.6 °F 93% 29.81 in 5.0 mi NNW 23.0 mph - N/A   Overcast
2:55 PM 26.6 °F 13.1 °F 24.8 °F 93% 29.82 in 8.0 mi NNW 19.6 mph - N/A Snow Light Snow
3:15 PM 28.4 °F 17.0 °F 24.8 °F 86% 29.82 in 9.0 mi NNW 15.0 mph - N/A   Overcast
3:35 PM 28.4 °F 16.6 °F 24.8 °F 86% 29.83 in 9.0 mi NNW 16.1 mph - N/A   Overcast
3:55 PM 28.4 °F 17.0 °F 24.8 °F 86% 29.83 in 9.0 mi NNW 15.0 mph - N/A   Overcast
4:15 PM 28.4 °F 17.5 °F 24.8 °F 86% 29.83 in 9.0 mi NNW 13.8 mph - N/A   Overcast
4:35 PM 28.4 °F 17.5 °F 26.6 °F 93% 29.84 in 10.0 mi NNW 13.8 mph - N/A   Overcast
4:55 PM 28.4 °F 15.4 °F 26.6 °F 93% 29.85 in 8.0 mi NNW 19.6 mph - N/A   Overcast
5:15 PM 28.4 °F 17.0 °F 26.6 °F 93% 29.85 in 8.0 mi NNW 15.0 mph - N/A   Overcast
5:35 PM 28.4 °F 17.0 °F 26.6 °F 93% 29.86 in 8.0 mi NNW 15.0 mph - N/A   Overcast
5:55 PM 28.4 °F 16.2 °F 26.6 °F 93% 29.87 in 7.0 mi NNW 17.3 mph - N/A Rain Light Freezing Rain
6:15 PM 26.6 °F 13.4 °F 24.8 °F 93% 29.89 in 5.0 mi NNW 18.4 mph 24.2 mph N/A Snow Light Snow
6:35 PM 26.6 °F 12.4 °F 26.6 °F 100% 29.90 in 5.0 mi NNW 21.9 mph 25.3 mph N/A Snow Light Snow
6:55 PM 26.6 °F 14.3 °F 26.6 °F 100% 29.90 in 5.0 mi NNW 16.1 mph 25.3 mph N/A Snow Light Snow
7:15 PM 26.6 °F 13.4 °F 26.6 °F 100% 29.91 in 7.0 mi NNW 18.4 mph - N/A Snow Light Snow
7:35 PM 26.6 °F 14.3 °F 26.6 °F 100% 29.92 in 9.0 mi NNW 16.1 mph - N/A Snow Light Snow
7:55 PM 26.6 °F 13.4 °F 26.6 °F 100% 29.93 in 9.0 mi NNW 18.4 mph 25.3 mph N/A   Overcast
8:15 PM 26.6 °F 13.4 °F 26.6 °F 100% 29.94 in 7.0 mi NNW 18.4 mph 25.3 mph N/A Snow Light Snow
8:35 PM 24.8 °F 9.0 °F 24.8 °F 100% 29.95 in 6.0 mi NNW 25.3 mph 31.1 mph N/A Snow Light Snow
8:55 PM 24.8 °F 9.3 °F 24.8 °F 100% 29.96 in 6.0 mi NNW 24.2 mph 32.2 mph 0.02 in Snow Light Snow
9:15 PM 23.0 °F 6.6 °F 23.0 °F 100% 29.97 in 5.0 mi NNW 25.3 mph 35.7 mph 0.02 in Snow Light Snow
9:35 PM 23.0 °F 8.0 °F 23.0 °F 100% 29.98 in 9.0 mi NNW 20.7 mph 27.6 mph 0.02 in Snow Light Snow
9:55 PM 21.2 °F 5.6 °F 19.4 °F 93% 29.98 in 8.0 mi NNW 20.7 mph 29.9 mph 0.03 in Snow Light Snow
10:15 PM 19.4 °F 2.5 °F 17.6 °F 93% 29.99 in 9.0 mi NNW 23.0 mph 27.6 mph N/A Snow Light Snow
10:35 PM 19.4 °F 3.2 °F 17.6 °F 93% 29.99 in 10.0 mi NNW 20.7 mph - N/A Snow Light Snow
10:55 PM 19.4 °F 4.1 °F 17.6 °F 93% 30.00 in 10.0 mi NNW 18.4 mph 26.5 mph N/A Snow Light Snow
11:15 PM 19.4 °F 3.2 °F 15.8 °F 86% 30.01 in 9.0 mi NNW 20.7 mph 27.6 mph N/A Snow Light Snow
11:35 PM 17.6 °F -0.6 °F 15.8 °F 93% 30.01 in 8.0 mi NNW 25.3 mph 28.8 mph N/A Snow Light Snow
11:55 PM 17.6 °F 1.7 °F 17.6 °F 100% 30.02 in 9.0 mi NNW 18.4 mph 25.3 mph N/A Snow Light Snow